Theta_e
318 318 319 320 321 322 323 324 324 324 322 321 321 321 320 322 323 318 311 317 320 325 329 324 324 319 320 314 316 317 305 301 303 303 305 310 308 312 313 310 310 311 312 317 321
317 317 317 317 317 319 320 322 323 323 323 322 320 321 320 322 316 312 322 325 324 326 324 320 316 316 312 312 313 310 303 303 308 308 307 309 309 309 308 308 307 306 309 319 318
319 318 318 318 317 317 317 319 320 322 323 322 321 320 319 321 309 308 325 326 326 328 325 322 320 315 309 311 310 309 304 308 308 309 309 309 308 311 307 306 310 307 310 315 313
318 318 319 319 318 317 316 316 318 320 321 322 321 320 319 316 295 313 327 327 327 327 322 317 314 309 308 305 310 304 308 310 309 310 307 307 310 307 308 310 312 314 313 314 312
315 315 316 316 317 317 317 316 316 317 318 320 321 319 314 305 305 315 324 327 325 325 317 313 311 310 305 307 308 305 307 309 310 308 308 309 307 307 308 312 310 312 312 312 312
314 314 315 315 315 314 315 316 316 315 316 318 320 320 311 298 313 315 322 322 321 320 315 315 311 313 308 307 306 308 308 307 309 309 307 304 306 305 309 312 308 309 309 311 312
313 314 314 314 314 314 314 315 315 315 315 316 318 316 307 304 314 315 321 322 322 320 314 316 315 310 309 305 309 308 303 306 307 307 306 307 302 302 309 310 306 307 309 311 312
313 313 313 313 313 313 313 313 314 314 315 315 316 312 301 314 316 312 313 319 321 321 317 316 315 310 307 308 305 302 303 297 304 306 306 305 297 305 309 307 306 307 308 309 310
312 312 311 311 311 311 311 312 312 313 314 315 309 306 298 316 308 312 312 311 315 317 314 311 311 306 305 300 297 299 293 295 299 306 304 302 298 305 308 308 306 307 308 308 309
311 310 310 310 310 310 310 310 310 311 310 310 308 299 303 302 308 310 313 312 311 309 305 303 302 298 299 296 289 292 293 296 295 301 303 300 299 303 301 305 306 307 308 308 307
310 310 309 309 309 309 308 304 298 297 302 296 297 297 301 307 309 307 310 309 307 304 295 299 293 289 294 297 297 296 296 294 298 301 298 299 299 301 304 300 302 305 307 307 307
309 309 309 308 308 308 306 298 297 299 289 297 300 300 302 306 299 303 310 301 299 294 297 294 291 296 299 298 296 296 293 294 298 298 296 297 296 301 303 304 300 302 305 307 307
309 308 308 308 307 305 301 299 305 303 289 292 297 297 299 303 298 299 305 301 296 293 294 291 293 298 296 296 294 294 293 292 292 292 293 292 290 293 299 302 305 303 303 306 307
308 308 308 307 302 302 298 303 305 300 282 286 291 295 298 299 294 304 305 300 295 291 293 293 297 294 294 293 295 290 297 294 292 290 287 292 285 295 297 296 299 303 304 302 305
307 307 307 306 301 297 300 303 304 297 271 288 291 301 298 294 294 296 304 299 293 293 293 290 292 291 290 293 296 292 297 294 293 292 291 291 286 292 296 295 296 299 303 305 303
307 307 306 304 303 302 304 304 300 280 271 284 291 290 291 293 293 295 298 301 299 292 294 292 296 295 293 294 296 297 294 293 293 290 283 289 288 289 292 294 297 299 301 304 303
306 306 305 305 297 305 304 297 280 274 285 283 284 289 289 288 290 291 291 290 288 284 284 289 288 292 295 290 294 293 290 282 280 281 281 288 288 291 297 295 298 298 300 303 304
306 306 305 303 305 304 299 286 274 281 281 287 287 288 285 288 288 288 288 286 291 290 287 283 281 288 292 290 287 289 289 284 277 278 283 285 283 290 297 299 297 298 299 302 303
306 302 300 303 305 304 290 276 278 282 286 285 286 283 284 287 287 287 287 287 289 292 285 284 283 292 291 292 291 288 285 291 284 285 284 285 288 293 293 291 292 295 295 298 302
300 298 297 304 305 298 285 280 282 287 286 286 280 284 281 284 284 285 285 289 289 293 294 288 282 288 288 290 291 289 292 283 285 279 278 285 286 288 289 291 292 292 293 297 301
299 291 299 305 303 290 280 282 284 289 288 285 283 282 284 283 285 284 285 289 291 291 294 291 286 283 286 284 285 285 284 287 288 286 282 281 286 292 292 292 292 293 294 296 299
296 286 299 303 286 286 283 284 287 286 289 287 287 285 283 284 284 284 284 288 294 293 288 291 287 280 282 289 289 289 288 288 283 282 285 284 286 291 291 291 293 295 295 295 298
290 287 298 298 280 282 286 285 287 286 286 286 285 287 289 285 282 286 286 292 293 292 289 290 284 279 280 283 285 283 287 289 288 288 285 282 286 291 290 290 293 293 293 294 296
290 283 290 291 288 283 283 283 283 289 287 288 287 288 286 285 288 285 286 289 293 293 295 293 285 283 278 283 287 281 284 287 287 283 284 286 288 290 290 290 291 292 293 293 294
291 285 287 283 285 285 284 283 281 282 288 289 286 286 285 280 284 284 288 289 292 293 293 289 282 285 286 287 285 285 283 284 282 286 284 287 288 292 292 292 292 293 293 292 292
288 287 288 285 285 284 285 283 282 284 285 284 284 286 287 283 284 284 286 287 286 290 287 287 283 286 283 286 286 282 285 285 284 285 287 288 288 295 293 294 292 292 291 291 291
294 294 289 285 284 283 284 284 283 285 287 288 287 287 285 287 290 292 293 292 291 288 286 285 284 283 279 285 283 278 283 285 285 286 288 284 290 295 291 291 292 292 291 291 292
Wind_Speed
16 17 17 17 18 18 19 16 15 12 9 11 12 13 15 16 14 14 18 9 10 9 13 14 12 12 13 11 14 7 8 13 18 14 11 8 12 7 4 7 7 6 5 12 22
15 15 15 16 18 18 18 19 17 16 10 11 11 10 14 16 17 21 20 12 11 13 18 18 18 16 12 15 9 13 12 15 9 6 8 9 13 11 7 11 9 8 5 20 22
17 17 16 16 15 17 18 17 18 17 15 12 12 10 11 15 15 4 11 16 14 15 20 17 17 17 16 12 16 13 18 15 1 6 4 7 10 10 13 14 13 15 15 21 20
19 19 19 18 18 16 16 18 18 18 17 15 11 10 9 10 7 6 8 13 16 17 16 18 17 18 16 15 17 12 19 14 4 4 6 9 7 9 12 4 4 11 19 20 21
20 19 21 21 19 19 19 17 18 18 18 17 12 8 9 10 14 9 4 14 16 14 16 18 20 20 17 17 15 22 14 15 10 5 9 4 10 13 11 10 1 6 18 21 19
21 20 20 21 20 21 19 20 18 17 17 17 16 11 12 19 5 5 6 15 17 16 16 19 15 20 13 18 20 9 18 12 10 17 8 10 13 4 12 10 8 12 17 19 20
22 22 21 20 21 21 21 21 19 20 17 18 18 13 15 19 3 4 5 11 13 18 17 17 15 12 8 15 15 17 11 17 20 12 11 12 18 15 15 9 13 15 16 18 19
20 21 22 22 22 21 22 22 21 19 20 19 19 15 15 13 16 20 8 9 11 13 11 9 12 15 14 3 7 16 19 16 14 18 12 11 14 21 19 14 16 16 16 17 19
21 20 20 22 22 20 21 20 21 21 20 19 17 15 19 8 21 19 20 17 12 10 9 6 10 15 11 12 14 15 14 21 17 16 13 18 11 18 7 19 18 16 17 17 18
21 19 19 21 22 22 20 22 20 21 15 16 13 12 17 13 12 18 17 18 17 13 10 11 7 10 14 17 17 16 20 16 21 15 19 17 20 7 5 12 16 18 18 18 18
22 22 20 21 22 21 17 14 10 8 16 18 11 19 3 19 7 13 21 20 18 18 15 18 10 16 20 21 20 5 16 19 10 8 12 20 19 20 15 12 15 18 20 19 19
23 22 22 21 21 20 14 11 13 8 12 15 20 25 25 8 11 13 20 19 20 20 21 13 21 19 19 19 20 19 12 13 6 6 8 13 19 19 21 21 18 17 18 20 19
22 22 22 20 20 14 15 17 13 15 8 11 20 21 25 20 14 17 23 24 22 22 23 20 8 21 22 21 22 20 17 14 6 7 12 11 18 23 23 23 20 20 18 19 21
22 21 20 17 12 6 7 5 6 11 7 10 11 17 22 22 21 22 18 22 11 24 21 19 18 14 20 19 21 21 17 15 11 6 7 7 7 8 20 24 21 22 22 19 21
22 21 20 11 10 10 11 9 3 2 8 16 12 1 19 30 20 21 17 16 18 15 15 12 20 16 18 19 17 14 14 16 14 13 15 14 7 9 9 16 19 23 22 22 21
21 20 17 9 7 9 8 3 2 5 8 4 4 6 14 24 26 17 26 17 9 14 19 10 3 15 15 10 16 6 7 9 9 11 13 19 16 9 10 15 16 18 22 23 23
20 19 15 9 8 5 3 1 4 6 1 3 6 8 17 18 24 22 27 25 11 9 13 16 11 6 9 11 12 14 15 7 7 8 10 2 16 13 3 4 2 8 20 21 22
18 18 8 7 7 3 1 2 8 4 8 4 9 7 13 14 20 26 20 20 22 17 14 11 11 14 12 12 8 20 19 5 8 7 10 4 10 8 15 15 5 8 5 17 21
16 6 5 3 5 4 2 5 5 6 8 8 11 9 7 9 6 19 23 22 20 23 15 13 15 19 17 13 13 17 19 3 7 2 5 8 10 11 10 7 5 11 9 15 19
6 7 2 7 4 3 2 6 6 6 1 9 7 4 7 10 7 14 17 19 22 24 21 9 8 13 6 4 12 10 14 13 4 5 7 8 10 7 7 14 11 11 11 14 17
5 5 5 6 2 2 4 5 7 9 7 4 6 5 8 3 8 9 5 6 24 22 21 11 7 7 9 13 16 7 10 11 6 8 7 10 5 6 6 3 12 11 12 13 18
3 3 5 4 3 2 6 4 5 10 10 7 5 9 13 1 5 10 7 4 8 22 25 17 3 9 14 5 7 17 15 17 8 7 5 4 2 3 4 3 3 11 11 13 15
3 3 1 3 3 3 9 11 9 12 10 3 4 5 8 5 4 7 4 4 10 8 18 12 5 8 8 4 5 7 17 7 11 6 14 9 5 3 5 6 5 11 11 12 15
1 2 1 1 1 5 9 8 5 7 10 9 8 5 5 8 10 4 7 0 5 7 10 15 5 8 12 5 7 8 11 16 15 13 13 14 18 7 5 7 8 11 12 13 15
3 2 3 3 3 8 9 7 13 7 6 4 5 10 5 3 3 4 5 6 6 6 8 7 6 13 15 13 7 10 15 14 14 19 18 17 14 15 6 5 8 10 13 15 15
2 3 2 7 8 9 9 2 9 12 4 6 5 10 6 5 4 3 5 4 3 4 4 1 4 8 13 13 14 14 17 19 20 21 23 21 22 13 5 6 9 11 13 14 16
2 2 2 5 4 6 5 7 8 12 7 12 10 3 5 6 7 5 5 4 2 8 8 5 4 4 11 12 12 13 23 22 20 23 21 22 19 14 6 7 10 13 14 15 16
Wind_Direction
329 330 322 330 329 336 336 330 307 299 298 310 313 319 314 310 292 257 246 235 234 206 216 188 189 195 197 199 216 232 232 235 229 225 237 135 199 230 65 131 188 167 24 126 140
328 333 331 322 318 320 322 329 336 312 294 303 306 311 317 314 293 277 254 228 204 206 208 189 187 182 191 203 198 210 224 234 257 256 259 169 215 180 188 178 175 161 114 132 150
320 320 318 320 324 322 313 319 325 327 303 296 304 313 317 309 292 264 17 182 201 212 212 199 193 187 205 202 207 214 239 230 252 257 283 227 219 166 219 198 205 185 158 153 164
328 334 332 320 311 313 319 312 310 317 319 293 293 301 315 287 273 42 351 205 194 209 220 208 202 201 211 204 211 246 224 251 295 197 234 228 226 211 229 184 302 175 164 164 174
324 320 321 320 325 326 314 308 306 303 308 316 281 282 285 242 248 309 351 180 191 194 212 204 205 201 211 213 220 218 247 229 207 229 240 260 230 228 218 228 21 164 163 176 179
325 324 321 318 319 316 311 312 299 303 300 304 297 269 247 256 310 268 252 184 194 196 216 210 216 216 236 233 213 219 230 222 235 230 220 235 236 189 222 210 184 170 179 182 184
319 323 323 322 317 311 309 303 304 300 300 296 296 271 257 243 269 277 242 183 197 207 213 218 224 250 218 239 231 223 227 235 233 216 224 226 247 213 239 173 192 183 184 187 188
326 322 322 321 316 314 310 304 300 294 287 287 287 277 258 253 244 238 245 226 230 228 242 246 243 253 240 241 216 218 224 231 208 213 214 193 251 222 221 192 206 197 186 188 190
328 326 324 319 319 319 319 313 296 282 271 275 272 249 263 198 217 227 217 211 201 212 210 231 220 230 220 222 214 206 221 223 223 192 200 207 244 237 203 202 218 202 200 187 188
315 316 315 315 315 315 320 303 289 274 248 246 243 256 257 227 219 221 203 208 186 181 185 204 188 215 215 208 214 212 221 234 216 181 213 211 237 216 196 234 213 222 206 189 192
319 317 316 315 313 314 316 313 286 253 233 224 211 218 330 215 160 211 189 192 185 187 187 192 198 204 201 219 229 298 231 232 220 144 208 229 238 235 219 209 225 225 212 197 195
316 313 313 310 308 309 297 271 282 295 286 275 269 264 247 216 204 205 178 184 191 197 198 185 222 212 215 218 230 247 259 223 215 160 226 243 244 242 235 224 213 217 219 205 192
321 313 309 309 308 290 269 277 308 338 259 263 244 244 241 224 233 181 186 196 192 202 201 205 215 222 210 215 220 223 222 237 255 181 228 274 263 245 232 232 223 210 214 209 201
323 319 316 316 288 315 291 17 62 67 276 243 208 238 221 236 238 236 202 195 201 207 204 226 215 206 222 226 216 222 221 235 185 249 239 199 287 228 207 215 214 213 212 201 200
326 325 323 318 292 284 288 309 50 118 284 343 201 48 202 207 208 221 192 219 211 198 200 199 210 205 213 214 217 230 219 220 245 257 266 238 260 250 179 198 206 211 208 205 195
327 327 323 300 265 272 314 330 231 233 248 326 282 217 198 200 212 213 184 180 236 213 200 209 195 212 215 209 221 222 198 206 229 246 249 238 217 244 188 217 211 208 206 200 193
327 321 309 294 282 5 324 286 243 239 38 314 261 238 211 206 210 220 190 189 170 171 181 191 192 157 198 170 202 187 172 164 200 207 236 348 222 255 216 84 231 190 194 194 190
323 316 304 291 292 290 56 226 251 265 258 245 286 280 239 215 212 215 199 201 208 213 168 177 191 173 184 189 186 195 188 183 204 208 211 162 233 239 245 251 197 170 186 190 186
313 306 299 339 315 183 185 237 275 325 356 331 300 259 260 205 236 202 213 213 207 216 218 196 221 170 181 193 176 197 218 268 315 241 252 186 236 291 202 180 170 179 186 194 186
308 313 300 335 273 168 225 268 286 312 189 286 295 328 266 207 201 193 203 218 216 215 222 235 201 172 152 186 217 224 199 211 223 228 228 194 228 260 184 210 180 187 192 188 177
284 318 40 344 244 200 256 277 300 301 284 263 310 309 288 6 197 212 236 212 202 196 216 205 239 159 147 208 189 178 214 212 238 250 264 240 201 29 77 100 179 182 182 178 173
309 295 21 321 285 244 261 275 319 296 277 258 274 269 263 201 302 195 246 248 264 183 191 199 230 170 205 163 293 220 216 205 208 200 232 298 71 31 55 89 207 161 150 161 170
320 298 1 318 290 300 311 300 290 287 283 275 273 246 306 277 218 231 162 263 296 199 192 152 199 199 191 212 193 221 222 215 233 289 222 217 144 93 89 103 152 135 142 149 161
309 321 301 359 175 289 323 307 314 291 279 269 281 269 298 277 229 240 159 87 288 219 134 165 158 225 213 206 145 199 216 219 220 230 231 226 251 177 108 125 147 150 148 148 158
334 19 344 305 316 311 298 286 295 294 255 268 280 256 267 304 263 207 139 132 187 141 163 146 188 201 231 245 252 218 207 219 207 218 225 239 223 257 78 146 162 155 151 151 155
348 319 322 293 306 306 290 325 307 306 260 283 234 294 321 213 240 224 132 146 178 159 149 143 219 232 234 242 236 251 219 209 218 224 227 229 242 236 89 124 156 164 162 165 163
31 279 275 280 302 298 8 334 316 322 278 265 289 292 295 280 288 341 300 201 168 177 189 162 206 222 257 226 219 248 231 224 221 221 225 230 236 243 192 179 194 177 176 172 167